Rural Retreat, VA

6:27 PM EST on January 16, 2017 (GMT -0500)
Mountain Empire

Weather History for KMKJ - November, 2013

Change the Weather History Date:

Friday, November 1, 2013

  Actual Average (KBLF) Record (KBLF)
Temperature  
Mean Temperature 60 °F -  
Max Temperature 69 °F 61 °F 79 °F (2004)
Min Temperature 52 °F 46 °F 26 °F (1993)
Degree Days  
Heating Degree Days 4    
Growing Degree Days 10 (Base 50)    
Moisture  
Dew Point 52 °F    
Average Humidity 69    
Maximum Humidity 100    
Minimum Humidity 42    
Precipitation  
Precipitation 0.14 in - - ()
Sea Level Pressure  
Sea Level Pressure 29.78 in    
Wind  
Wind Speed 11 mph (WSW)    
Max Wind Speed 21 mph    
Max Gust Speed 41 mph    
Visibility 10 miles    
Events Rain    
Averages and records for this station are not official NWS values.
T = Trace of Precipitation, MM = Missing Value Source: NWS Daily Summary

Daily Weather History Graph

Daily Weather History Graph

Search for Another Location

Airport or City:

Trip Planner

Search our weather history database for the weather conditions in past years. The results will help you decide how hot, cold, wet, or windy it might be!

Date:

Astronomy

Nov. 01, 2013 Rise Set
Actual Time 7:49 AM EDT 6:27 PM EDT
Civil Twilight 7:22 AM EDT 6:54 PM EDT
Nautical Twilight 6:52 AM EDT 7:25 PM EDT
Astronomical Twilight 6:21 AM EDT 7:55 PM EDT
Moon 5:43 AM EDT (11/1) 5:17 PM EDT (11/1)
Length of Visible Light 11h 32m
Length of Day
10h 38m
Waning Crescent, 4% of the Moon is Illuminated
Nov 1
Waning Crescent
Nov 3
New
Nov 10
First Quarter
Nov 17
Full
Nov 25
Last Quarter

Hourly Weather History & Observations

Time (EDT) Temp. Dew Point Humidity Pressure Visibility Wind Dir Wind Speed Gust Speed Precip Events Conditions
12:15 AM 67.5 °F 57.2 °F 70% 29.76 in 10.0 mi South 13.8 mph 41.4 mph N/A Rain Light Rain
12:35 AM 67.5 °F 57.4 °F 70% 29.77 in 10.0 mi South 15.0 mph 32.2 mph N/A Rain Light Rain
12:55 AM 67.5 °F 57.6 °F 70% 29.77 in 10.0 mi South 16.1 mph 39.1 mph N/A   Mostly Cloudy
1:15 AM 67.6 °F 57.4 °F 70% 29.77 in 10.0 mi South 9.2 mph 27.6 mph N/A   Scattered Clouds
1:35 AM 68.7 °F 57.2 °F 67% 29.76 in 10.0 mi SW 15.0 mph 34.5 mph N/A   Mostly Cloudy
1:55 AM 68.2 °F 57.6 °F 69% 29.77 in 10.0 mi SSW 12.7 mph 23.0 mph N/A   Overcast
2:15 AM 68.0 °F 57.4 °F 69% 29.75 in 10.0 mi South 3.5 mph 16.1 mph N/A   Light Drizzle
2:35 AM 68.4 °F 57.0 °F 67% 29.77 in 10.0 mi SSW 8.1 mph 16.1 mph N/A   Overcast
2:55 AM 68.4 °F 56.7 °F 66% 29.75 in 10.0 mi SW 8.1 mph 16.1 mph N/A   Overcast
3:15 AM 68.7 °F 56.3 °F 64% 29.75 in 10.0 mi SSW 9.2 mph - N/A   Overcast
3:35 AM 68.9 °F 56.3 °F 64% 29.75 in 10.0 mi South 8.1 mph 18.4 mph N/A   Overcast
3:55 AM 68.9 °F 56.3 °F 64% 29.74 in 10.0 mi SSW 9.2 mph 20.7 mph N/A   Overcast
4:15 AM 69.1 °F 55.9 °F 63% 29.73 in 10.0 mi South 3.5 mph - N/A   Overcast
4:35 AM 69.8 °F 56.3 °F 62% 29.73 in 10.0 mi SW 9.2 mph 20.7 mph N/A   Overcast
4:55 AM 69.3 °F 56.7 °F 64% 29.73 in 10.0 mi SSW 8.1 mph 18.4 mph N/A   Overcast
5:15 AM 67.6 °F 57.7 °F 71% 29.73 in 10.0 mi SSW 5.8 mph - N/A   Overcast
5:35 AM 68.0 °F 57.2 °F 68% 29.72 in 10.0 mi SSW 5.8 mph - N/A   Overcast
5:55 AM 67.6 °F 57.7 °F 71% 29.74 in 10.0 mi SSW 8.1 mph - N/A Rain Light Rain
6:15 AM 64.6 °F 59.9 °F 85% 29.74 in 7.0 mi West 4.6 mph - 0.01 in Rain Light Rain
6:35 AM 63.5 °F 60.8 °F 91% 29.75 in 7.0 mi West 5.8 mph - 0.01 in   Light Drizzle
6:55 AM 62.8 °F 62.6 °F 99% 29.78 in 3.0 mi WSW 8.1 mph - 0.05 in Rain Rain
7:15 AM 63.0 °F 63.0 °F 100% 29.79 in 5.0 mi WSW 15.0 mph 25.3 mph 0.04 in Rain Heavy Rain
7:35 AM 60.6 °F 58.3 °F 92% 29.81 in 5.0 mi WSW 13.8 mph 23.0 mph 0.06 in Rain Light Rain
7:55 AM 59.5 °F 58.8 °F 97% 29.82 in 7.0 mi WSW 13.8 mph - 0.08 in   Drizzle
8:15 AM 59.4 °F 57.2 °F 93% 29.83 in 4.0 mi WSW 19.6 mph 33.4 mph 0.01 in   Drizzle
8:35 AM 59.2 °F 58.1 °F 96% 29.83 in 10.0 mi WSW 11.5 mph - 0.01 in   Overcast
8:55 AM 59.4 °F 57.2 °F 93% 29.84 in 10.0 mi WSW 11.5 mph - 0.01 in   Light Drizzle
9:15 AM 59.2 °F 58.3 °F 97% 29.84 in 10.0 mi WSW 11.5 mph - N/A   Overcast
9:35 AM 59.9 °F 58.3 °F 94% 29.84 in 10.0 mi WSW 5.8 mph - N/A   Overcast
9:55 AM 59.9 °F 58.5 °F 95% 29.85 in 10.0 mi WSW 8.1 mph - N/A   Overcast
10:15 AM 61.3 °F 58.8 °F 91% 29.84 in 10.0 mi West 11.5 mph 16.1 mph N/A   Overcast
10:35 AM 61.0 °F 57.7 °F 89% 29.84 in 10.0 mi West 13.8 mph - N/A   Overcast
10:55 AM 62.1 °F 57.4 °F 85% 29.84 in 10.0 mi WSW 12.7 mph 18.4 mph N/A   Overcast
11:15 AM 64.4 °F 57.0 °F 77% 29.83 in 10.0 mi WSW 15.0 mph 21.9 mph N/A   Mostly Cloudy
11:35 AM 63.3 °F 55.8 °F 76% 29.82 in 10.0 mi West 12.7 mph 18.4 mph N/A   Overcast
11:55 AM 64.4 °F 56.1 °F 74% 29.82 in 10.0 mi WSW 17.3 mph 20.7 mph N/A   Overcast
12:15 PM 64.6 °F 55.8 °F 73% 29.82 in 10.0 mi WSW 11.5 mph 16.1 mph N/A   Overcast
12:35 PM 66.2 °F 55.6 °F 69% 29.81 in 10.0 mi WSW 12.7 mph 23.0 mph N/A   Mostly Cloudy
12:55 PM 65.7 °F 52.7 °F 63% 29.80 in 10.0 mi West 17.3 mph 20.7 mph N/A   Mostly Cloudy
1:15 PM 67.3 °F 53.8 °F 62% 29.79 in 10.0 mi WSW 12.7 mph 20.7 mph N/A   Scattered Clouds
1:35 PM 68.0 °F 51.8 °F 56% 29.77 in 10.0 mi WSW 17.3 mph 26.5 mph N/A   Clear
1:55 PM 68.5 °F 50.7 °F 53% 29.77 in 10.0 mi WSW 20.7 mph 27.6 mph N/A   Clear
2:15 PM 69.1 °F 50.9 °F 52% 29.77 in 10.0 mi SW 13.8 mph 19.6 mph N/A   Clear
2:35 PM 66.6 °F 50.5 °F 56% 29.76 in 10.0 mi WSW 16.1 mph 21.9 mph N/A   Scattered Clouds
2:55 PM 68.2 °F 49.1 °F 50% 29.75 in 10.0 mi WSW 12.7 mph - N/A   Clear
3:15 PM 68.9 °F 47.5 °F 46% 29.75 in 10.0 mi WSW 10.4 mph 24.2 mph N/A   Clear
3:35 PM 69.3 °F 46.8 °F 45% 29.75 in 10.0 mi WSW 16.1 mph 20.7 mph N/A   Scattered Clouds
3:55 PM 68.9 °F 45.1 °F 42% 29.75 in 10.0 mi WSW 15.0 mph - N/A   Scattered Clouds
4:15 PM 68.5 °F 45.5 °F 44% 29.75 in 10.0 mi WSW 11.5 mph 20.7 mph N/A   Clear
5:55 PM 64.9 °F 42.4 °F 44% 29.74 in 10.0 mi WSW 9.2 mph - N/A   Clear
6:15 PM 64.4 °F 42.1 °F 44% 29.75 in 10.0 mi WSW 11.5 mph - N/A   Clear
6:35 PM 62.6 °F 41.9 °F 47% 29.76 in 10.0 mi WSW 8.1 mph - N/A   Clear
6:55 PM 62.1 °F 41.5 °F 47% 29.77 in 10.0 mi WSW 6.9 mph - N/A   Clear
7:15 PM 61.9 °F 41.5 °F 47% 29.78 in 10.0 mi West 5.8 mph - N/A   Clear
7:35 PM 61.0 °F 41.9 °F 49% 29.78 in 10.0 mi WSW 6.9 mph - N/A   Clear
7:55 PM 59.2 °F 42.6 °F 54% 29.78 in 10.0 mi WSW 6.9 mph - N/A   Clear
8:15 PM 57.2 °F 43.2 °F 59% 29.79 in 10.0 mi West 6.9 mph - N/A   Clear
8:35 PM 56.8 °F 43.7 °F 61% 29.79 in 10.0 mi West 5.8 mph - N/A   Clear
8:55 PM 55.4 °F 43.7 °F 65% 29.80 in 10.0 mi WSW 6.9 mph - N/A   Clear
9:15 PM 54.5 °F 44.1 °F 68% 29.80 in 10.0 mi West 6.9 mph - N/A   Clear
9:35 PM 52.9 °F 44.1 °F 72% 29.80 in 10.0 mi WSW 8.1 mph - N/A   Clear
9:55 PM 53.8 °F 44.1 °F 70% 29.81 in 10.0 mi WSW 6.9 mph - N/A   Scattered Clouds
10:15 PM 53.6 °F 43.9 °F 70% 29.81 in 10.0 mi WSW 4.6 mph - N/A   Mostly Cloudy
10:35 PM 53.6 °F 43.7 °F 69% 29.82 in 10.0 mi WSW 5.8 mph - N/A   Mostly Cloudy
10:55 PM 54.0 °F 43.7 °F 68% 29.82 in 10.0 mi WSW 5.8 mph - N/A   Overcast
11:15 PM 54.0 °F 44.6 °F 71% 29.83 in 10.0 mi West 5.8 mph - N/A   Overcast
11:35 PM 54.0 °F 44.6 °F 71% 29.83 in 10.0 mi SW 5.8 mph - N/A   Overcast
11:55 PM 53.8 °F 44.4 °F 71% 29.82 in 10.0 mi West 4.6 mph - N/A   Overcast